• In Lithuania
  • List of Countries
  • For 7 days
  • Water Temperature
  • Satellite Maps
  • Weather Map
  • Weather Widgets
  • user-avatar
    Login

    Hourly Weather Chicago

    Today, 16 August, Thursday

    Time Temperature Precipitation Wind Pressure Humidity
    00:00 +25°C° 0 mm 2 mps 743 mmHg 88%
    01:00 +24°C° 0 mm 2 mps 743 mmHg 88%
    02:00 +24°C° 0 mm 2 mps 743 mmHg 89%
    03:00 +24°C° 0 mm 2 mps 742 mmHg 90%
    04:00 +24°C° 0 mm 1 mps 743 mmHg 90%
    05:00 +24°C° 0 mm 1 mps 743 mmHg 90%
    06:00 +24°C° 0 mm 1 mps 743 mmHg 90%
    07:00 +25°C° 0 mm 1 mps 743 mmHg 85%
    08:00 +27°C° 0 mm 1 mps 743 mmHg 80%
    09:00 +28°C° 0 mm 1 mps 744 mmHg 76%
    10:00 +29°C° 0.3 mm 2 mps 744 mmHg 72%
    11:00 +30°C° 0.3 mm 2 mps 743 mmHg 69%
    12:00 +31°C° 0.3 mm 2 mps 743 mmHg 65%
    13:00 +31°C° 0.9 mm 2 mps 743 mmHg 65%
    14:00 +31°C° 0.9 mm 2 mps 743 mmHg 64%
    15:00 +32°C° 0.9 mm 2 mps 742 mmHg 64%
    16:00 +31°C° 0.7 mm 2 mps 742 mmHg 67%
    17:00 +30°C° 0.7 mm 2 mps 742 mmHg 70%
    18:00 +29°C° 0.7 mm 3 mps 742 mmHg 74%
    19:00 +28°C° 1.2 mm 2 mps 743 mmHg 77%
    20:00 +27°C° 1.2 mm 2 mps 743 mmHg 80%
    21:00 +26°C° 1.2 mm 2 mps 743 mmHg 84%
    22:00 +26°C° 0.7 mm 2 mps 743 mmHg 84%
    23:00 +25°C° 0.7 mm 2 mps 743 mmHg 85%

    Tomorrow, 17 August, Friday

    Time Temperature Precipitation Wind Pressure Humidity
    00:00 +25°C° 0.7 mm 1 mps 743 mmHg 86%
    01:00 +25°C° 0 mm 1 mps 743 mmHg 87%
    02:00 +24°C° 0 mm 2 mps 743 mmHg 87%
    03:00 +24°C° 0 mm 2 mps 743 mmHg 88%
    04:00 +24°C° 1 mm 2 mps 743 mmHg 88%
    05:00 +24°C° 1 mm 2 mps 743 mmHg 89%
    06:00 +24°C° 1 mm 2 mps 744 mmHg 89%
    07:00 +25°C° 0.8 mm 3 mps 744 mmHg 85%
    08:00 +26°C° 0.8 mm 3 mps 744 mmHg 81%
    09:00 +27°C° 0.8 mm 3 mps 744 mmHg 77%
    10:00 +28°C° 0.1 mm 3 mps 744 mmHg 73%
    11:00 +29°C° 0.1 mm 3 mps 744 mmHg 69%
    12:00 +30°C° 0.1 mm 4 mps 744 mmHg 65%
    13:00 +30°C° 0.6 mm 4 mps 744 mmHg 65%
    14:00 +30°C° 0.6 mm 4 mps 744 mmHg 65%
    15:00 +30°C° 0.6 mm 4 mps 744 mmHg 66%
    16:00 +29°C° 0.1 mm 4 mps 744 mmHg 68%
    17:00 +28°C° 0.1 mm 4 mps 744 mmHg 70%
    18:00 +27°C° 0.1 mm 5 mps 744 mmHg 72%
    19:00 +26°C° 0 mm 4 mps 745 mmHg 73%
    20:00 +26°C° 0 mm 4 mps 745 mmHg 74%
    21:00 +25°C° 0 mm 4 mps 745 mmHg 75%
    22:00 +25°C° 0 mm 3 mps 745 mmHg 75%
    23:00 +24°C° 0 mm 3 mps 745 mmHg 76%

    Day after tomorrow, 18 August, Saturday

    Time Temperature Precipitation Wind Pressure Humidity
    00:00 +24°C° 0 mm 3 mps 745 mmHg 77%
    01:00 +24°C° 0 mm 3 mps 745 mmHg 79%
    02:00 +23°C° 0 mm 2 mps 745 mmHg 81%
    03:00 +23°C° 0 mm 2 mps 745 mmHg 83%
    04:00 +23°C° 0 mm 2 mps 745 mmHg 83%
    05:00 +23°C° 0 mm 2 mps 745 mmHg 84%
    06:00 +23°C° 0 mm 2 mps 746 mmHg 84%
    07:00 +25°C° 0 mm 3 mps 746 mmHg 79%
    08:00 +26°C° 0 mm 3 mps 746 mmHg 73%
    09:00 +28°C° 0 mm 3 mps 747 mmHg 68%
    10:00 +29°C° 0 mm 3 mps 746 mmHg 64%
    11:00 +29°C° 0 mm 3 mps 746 mmHg 60%
    12:00 +30°C° 0 mm 3 mps 746 mmHg 56%
    13:00 +30°C° 0 mm 3 mps 745 mmHg 55%
    14:00 +32°C° 0 mm 4 mps 745 mmHg 55%
    15:00 +32°C° 0 mm 4 mps 745 mmHg 55%
    16:00 +30°C° 0 mm 4 mps 745 mmHg 58%
    17:00 +29°C° 0 mm 3 mps 745 mmHg 62%
    18:00 +27°C° 0 mm 3 mps 745 mmHg 65%
    19:00 +27°C° 0 mm 3 mps 745 mmHg 68%
    20:00 +26°C° 0 mm 3 mps 745 mmHg 71%
    21:00 +25°C° 0 mm 3 mps 746 mmHg 74%
    22:00 +25°C° 0 mm 3 mps 745 mmHg 76%
    23:00 +24°C° 0 mm 2 mps 745 mmHg 78%

    19 August, Sunday

    Time Temperature Precipitation Wind Pressure Humidity
    00:00 +24°C° 0 mm 2 mps 745 mmHg 80%
    01:00 +24°C° 0 mm 2 mps 745 mmHg 81%
    02:00 +23°C° 0 mm 2 mps 745 mmHg 82%
    03:00 +23°C° 0 mm 2 mps 745 mmHg 83%
    04:00 +23°C° 0 mm 1 mps 745 mmHg 83%
    05:00 +23°C° 0 mm 1 mps 745 mmHg 82%
    06:00 +23°C° 0 mm 1 mps 746 mmHg 82%
    07:00 +24°C° 0 mm 1 mps 746 mmHg 76%
    08:00 +26°C° 0 mm 2 mps 746 mmHg 70%
    09:00 +27°C° 0 mm 2 mps 746 mmHg 65%
    10:00 +28°C° 0 mm 2 mps 746 mmHg 61%
    11:00 +29°C° 0 mm 3 mps 745 mmHg 57%
    12:00 +30°C° 0 mm 3 mps 745 mmHg 53%
    13:00 +30°C° 0 mm 3 mps 745 mmHg 53%
    14:00 +30°C° 0 mm 3 mps 744 mmHg 53%
    15:00 +30°C° 0 mm 3 mps 744 mmHg 54%
    16:00 +29°C° 0 mm 3 mps 744 mmHg 57%
    17:00 +29°C° 0 mm 3 mps 744 mmHg 61%
    18:00 +28°C° 0 mm 2 mps 744 mmHg 65%
    19:00 +27°C° 0 mm 3 mps 744 mmHg 69%
    20:00 +26°C° 0 mm 3 mps 744 mmHg 72%
    21:00 +25°C° 0 mm 3 mps 744 mmHg 75%
    22:00 +24°C° 0 mm 3 mps 744 mmHg 77%
    23:00 +24°C° 0 mm 3 mps 744 mmHg 78%

    20 August, Monday

    Time Temperature Precipitation Wind Pressure Humidity
    00:00 +22°C° 0 mm 3 mps 744 mmHg 79%
    01:00 +22°C° 0 mm 3 mps 744 mmHg 79%
    02:00 +21°C° 0 mm 2 mps 743 mmHg 80%
    03:00 +21°C° 0 mm 2 mps 743 mmHg 80%
    04:00 +21°C° 0 mm 2 mps 743 mmHg 80%
    05:00 +21°C° 0 mm 3 mps 743 mmHg 80%
    06:00 +20°C° 0 mm 3 mps 743 mmHg 80%
    07:00 +22°C° 0 mm 3 mps 744 mmHg 77%
    08:00 +24°C° 0 mm 3 mps 744 mmHg 74%
    09:00 +25°C° 0 mm 2 mps 744 mmHg 71%
    10:00 +26°C° 0 mm 2 mps 743 mmHg 72%
    11:00 +26°C° 0 mm 2 mps 743 mmHg 73%
    12:00 +26°C° 0 mm 2 mps 743 mmHg 74%
    13:00 +26°C° 0.1 mm 2 mps 742 mmHg 75%
    14:00 +26°C° 0.1 mm 2 mps 742 mmHg 77%
    15:00 +26°C° 0.1 mm 2 mps 741 mmHg 78%
    16:00 +26°C° 0.8 mm 3 mps 741 mmHg 79%
    17:00 +25°C° 0.8 mm 3 mps 741 mmHg 81%
    18:00 +25°C° 0.8 mm 3 mps 741 mmHg 82%
    19:00 +23°C° 1.2 mm 4 mps 741 mmHg 83%
    20:00 +23°C° 1.2 mm 4 mps 741 mmHg 84%
    21:00 +22°C° 1.2 mm 5 mps 741 mmHg 85%
    22:00 +22°C° 2.6 mm 5 mps 741 mmHg 87%
    23:00 +22°C° 2.6 mm 5 mps 741 mmHg 88%

    21 August, Tuesday

    Time Temperature Precipitation Wind Pressure Humidity
    00:00 +21°C° 2.6 mm 5 mps 740 mmHg 90%
    01:00 +21°C° 2.4 mm 5 mps 740 mmHg 90%
    02:00 +21°C° 2.4 mm 6 mps 740 mmHg 90%
    03:00 +21°C° 2.4 mm 6 mps 740 mmHg 90%
    04:00 +21°C° 0.6 mm 6 mps 740 mmHg 89%
    05:00 +20°C° 0.6 mm 7 mps 741 mmHg 89%
    06:00 +20°C° 0.6 mm 7 mps 741 mmHg 89%
    07:00 +20°C° 0.3 mm 7 mps 742 mmHg 87%
    08:00 +20°C° 0.3 mm 7 mps 742 mmHg 85%
    09:00 +20°C° 0.3 mm 7 mps 743 mmHg 84%
    10:00 +20°C° 0.1 mm 8 mps 743 mmHg 81%
    11:00 +20°C° 0.1 mm 8 mps 743 mmHg 78%
    12:00 +21°C° 0.1 mm 8 mps 744 mmHg 75%
    13:00 +20°C° 0 mm 8 mps 744 mmHg 74%
    14:00 +20°C° 0 mm 8 mps 744 mmHg 73%
    15:00 +18°C° 0 mm 7 mps 745 mmHg 72%
    16:00 +20°C° 0 mm 7 mps 745 mmHg 69%
    17:00 +20°C° 0 mm 6 mps 745 mmHg 66%
    18:00 +20°C° 0 mm 6 mps 746 mmHg 63%
    19:00 +20°C° 0 mm 6 mps 746 mmHg 61%
    20:00 +19°C° 0 mm 5 mps 747 mmHg 60%
    21:00 +17°C° 0 mm 5 mps 747 mmHg 59%
    22:00 +17°C° 0 mm 5 mps 747 mmHg 60%
    23:00 +18°C° 0 mm 4 mps 747 mmHg 61%
    Show more